Location: Ravensburg
(47.7866°N, 9.6124°E)
Time: 09:05:53
(UTC+02:00)

YUBILEINY - Pass Details

Date: 24 March 2026
Orbit: 1477 x 1509 km, 82.5° (Epoch: 17 April)

Event Time Altitude Azimuth Distance (km) Brightness Sun altitude
Rises 02:18:01 0° 350° (N) 4,617 ? -35.3°
Reaches altitude 10° 02:20:57 10° 354° (N) 3,631 ? -35.0°
Maximum altitude 02:29:39 68° 77° (ENE) 1,575 ? -34.2°
Enters shadow 02:32:30 46° 142° (SE) 1,909 ? -33.9°
